This demonstration page uses our WeatherBlox Daily Observations layout. Learn more.

Left ArrowRight Arrow

Hourly Observations for December 3, 2019

Temp ( °F °C ) Dew Point ( °F °C ) Humidity (%) Winds ( mph kmh ) Pressure ( in mb ) Visibility ( mi km ) Precip ( " mm )
12:52 am 00:52 Mostly Cloudy 31 -0.6 21 -6.1 67 67 SE 8 13 29.93 1014 10 16 0.00 0.00
1:52 am 01:52 Mostly Cloudy 32 0 23 -5 69 69 SE 7 11 29.91 1013 10 16 0.00 0.00
2:52 am 02:52 Cloudy 33 0.6 24 -4.4 70 70 Calm 29.91 1013 10 16 0.00 0.00
3:52 am 03:52 Cloudy 36 2.2 26 -3.3 67 67 Calm 29.89 1012 10 16 0.00 0.00
4:52 am 04:52 Mostly Cloudy 35 1.7 27 -2.8 72 72 NW 3 6 29.89 1012 10 16 0.00 0.00
5:52 am 05:52 Mostly Cloudy 33 0.6 26 -3.3 75 75 Calm 29.87 1012 10 16 0.00 0.00
6:52 am 06:52 Mostly Cloudy 33 0.6 27 -2.8 78 78 Calm 29.88 1012 10 16 0.00 0.00
7:52 am 07:52 Mostly Sunny 33 0.6 28 -2.2 82 82 Calm 29.88 1012 10 16 0.00 0.00
8:52 am 08:52 Mostly Sunny 37 2.8 29 -1.7 73 73 Calm 29.89 1012 10 16 0.00 0.00
9:52 am 09:52 Sunny 40 4.4 29 -1.7 65 65 Calm 29.88 1012 10 16 0.00 0.00
10:52 am 10:52 Sunny 48 8.9 30 -1.1 50 50 NNW 7 11 29.87 1011 10 16 0.00 0.00
11:52 am 11:52 Sunny 52 11.1 31 -0.6 45 45 NW 14 22 29.85 1011 10 16 0.00 0.00
12:52 pm 12:52 Sunny 54 12.2 31 -0.6 42 42 WNW 15 24 29.84 1010 10 16 0.00 0.00
1:52 pm 13:52 Sunny 54 12.2 30 -1.1 40 40 NW 22 35 29.84 1010 10 16 0.00 0.00
2:52 pm 14:52 Sunny 53 11.7 31 -0.6 43 43 NW 17 28 29.85 1011 10 16 0.00 0.00
3:52 pm 15:52 Sunny 52 11.1 31 -0.6 45 45 WNW 15 24 29.85 1011 10 16 0.00 0.00
4:52 pm 16:52 Mostly Sunny 48 8.9 32 0 54 54 WNW 10 17 29.87 1011 10 16 0.00 0.00
5:52 pm 17:52 Clear 45 7.2 32 0 61 61 WNW 12 19 29.88 1012 10 16 0.00 0.00
6:52 pm 18:52 Clear 44 6.7 31 -0.6 60 60 WNW 12 19 29.89 1012 10 16 0.00 0.00
7:52 pm 19:52 Mostly Clear 39 3.9 30 -1.1 70 70 Calm 29.91 1013 10 16 0.00 0.00
8:52 pm 20:52 Mostly Clear 38 3.3 29 -1.7 70 70 NW 6 9 29.91 1013 10 16 0.00 0.00
9:52 pm 21:52 Partly Cloudy 34 1.1 29 -1.7 82 82 NW 6 9 29.91 1013 10 16 0.00 0.00
10:52 pm 22:52 Mostly Cloudy 36 2.2 29 -1.7 76 76 N 3 6 29.90 1013 10 16 0.00 0.00
11:52 pm 23:52 Clear 36 2.2 29 -1.7 76 76 Calm 29.91 1013 10 16 0.00 0.00

Powered by AerisWeather